owner,sensor,date,latitude,longitude,air_pressure(mBar),qcFlag 
TABS,ioos:station:wmo:42045:1,2017-02-01T00:00:00Z,26.2168,-96.4998,1017.29,11111222 
TABS,ioos:station:wmo:42045:1,2017-02-01T00:30:00Z,26.2168,-96.4998,1017.17,11111222 
TABS,ioos:station:wmo:42045:1,2017-02-01T01:00:00Z,26.2168,-96.4998,1017.51,11111222 
TABS,ioos:station:wmo:42045:1,2017-02-01T01:30:00Z,26.2168,-96.4998,1017.59,11111222 
TABS,ioos:station:wmo:42045:1,2017-02-01T02:00:00Z,26.2168,-96.4998,1017.53,11111222 
TABS,ioos:station:wmo:42045:1,2017-02-01T02:30:00Z,26.2168,-96.4998,1017.41,11111222 
TABS,ioos:station:wmo:42045:1,2017-02-01T03:00:00Z,26.2168,-96.4998,1017.45,11111222 
TABS,ioos:station:wmo:42045:1,2017-02-01T03:30:00Z,26.2168,-96.4998,1017.31,11111222 
TABS,ioos:station:wmo:42045:1,2017-02-01T04:00:00Z,26.2168,-96.4998,1017.13,11111222 
TABS,ioos:station:wmo:42045:1,2017-02-01T04:30:00Z,26.2168,-96.4998,1017.34,11111222 
TABS,ioos:station:wmo:42045:1,2017-02-01T05:00:00Z,26.2168,-96.4998,1017.13,11111222 
TABS,ioos:station:wmo:42045:1,2017-02-01T05:30:00Z,26.2168,-96.4998,1016.94,11111222 
TABS,ioos:station:wmo:42045:1,2017-02-01T06:00:00Z,26.2168,-96.4998,1016.82,11111222 
TABS,ioos:station:wmo:42045:1,2017-02-01T06:30:00Z,26.2168,-96.4998,1016.69,11111222 
TABS,ioos:station:wmo:42045:1,2017-02-01T07:00:00Z,26.2168,-96.4998,1016.72,11111222 
TABS,ioos:station:wmo:42045:1,2017-02-01T07:30:00Z,26.2168,-96.4998,1016.57,11111222 
TABS,ioos:station:wmo:42045:1,2017-02-01T08:00:00Z,26.2168,-96.4998,1016.43,11111222 
TABS,ioos:station:wmo:42045:1,2017-02-01T08:30:00Z,26.2168,-96.4998,1016.1,11111222 
TABS,ioos:station:wmo:42045:1,2017-02-01T09:00:00Z,26.2168,-96.4998,1015.96,11111222 
TABS,ioos:station:wmo:42045:1,2017-02-01T09:30:00Z,26.2168,-96.4998,1015.78,11111222 
TABS,ioos:station:wmo:42045:1,2017-02-01T10:00:00Z,26.2168,-96.4998,1015.59,11111222 
TABS,ioos:station:wmo:42045:1,2017-02-01T10:30:00Z,26.2168,-96.4998,1015.55,11111222 
TABS,ioos:station:wmo:42045:1,2017-02-01T11:00:00Z,26.2168,-96.4998,1015.61,11111222 
TABS,ioos:station:wmo:42045:1,2017-02-01T11:30:00Z,26.2168,-96.4998,1015.56,11111222 
TABS,ioos:station:wmo:42045:1,2017-02-01T12:00:00Z,26.2168,-96.4998,1015.97,11111222 
TABS,ioos:station:wmo:42045:1,2017-02-01T12:30:00Z,26.2168,-96.4998,1016.16,11111222 
TABS,ioos:station:wmo:42045:1,2017-02-01T13:00:00Z,26.2168,-96.4998,1016.41,11111222 
TABS,ioos:station:wmo:42045:1,2017-02-01T13:30:00Z,26.2168,-96.4998,1016.49,11111222 
TABS,ioos:station:wmo:42045:1,2017-02-01T14:00:00Z,26.2168,-96.4998,1016.8,11111222 
TABS,ioos:station:wmo:42045:1,2017-02-01T14:30:00Z,26.2168,-96.4998,1016.82,11111222 
TABS,ioos:station:wmo:42045:1,2017-02-01T15:00:00Z,26.2168,-96.4998,1017.06,11111222 
TABS,ioos:station:wmo:42045:1,2017-02-01T15:30:00Z,26.2168,-96.4998,1017.44,11111222 
TABS,ioos:station:wmo:42045:1,2017-02-01T16:00:00Z,26.2168,-96.4998,1017.57,11111222 
TABS,ioos:station:wmo:42045:1,2017-02-01T16:30:00Z,26.2168,-96.4998,1017.5,11111222 
TABS,ioos:station:wmo:42045:1,2017-02-01T17:00:00Z,26.2168,-96.4998,1017.32,11111222 
TABS,ioos:station:wmo:42045:1,2017-02-01T17:30:00Z,26.2168,-96.4998,1016.7,11111222 
TABS,ioos:station:wmo:42045:1,2017-02-01T18:00:00Z,26.2168,-96.4998,1016.51,11111222 
TABS,ioos:station:wmo:42045:1,2017-02-01T18:30:00Z,26.2168,-96.4998,1016.14,11111222 
TABS,ioos:station:wmo:42045:1,2017-02-01T19:00:00Z,26.2168,-96.4998,1015.94,11111222 
TABS,ioos:station:wmo:42045:1,2017-02-01T19:30:00Z,26.2168,-96.4998,1015.48,11111222 
TABS,ioos:station:wmo:42045:1,2017-02-01T20:00:00Z,26.2168,-96.4998,1015.3,11111222 
TABS,ioos:station:wmo:42045:1,2017-02-01T20:30:00Z,26.2168,-96.4998,1015.05,11111222 
TABS,ioos:station:wmo:42045:1,2017-02-01T21:00:00Z,26.2168,-96.4998,1015.04,11111222 
TABS,ioos:station:wmo:42045:1,2017-02-01T21:30:00Z,26.2168,-96.4998,1014.98,11111222 
TABS,ioos:station:wmo:42045:1,2017-02-01T22:00:00Z,26.2168,-96.4998,1015.07,11111222 
TABS,ioos:station:wmo:42045:1,2017-02-01T22:30:00Z,26.2168,-96.4998,1015.26,11111222 
TABS,ioos:station:wmo:42045:1,2017-02-01T23:00:00Z,26.2168,-96.4998,1015.36,11111222 
TABS,ioos:station:wmo:42045:1,2017-02-01T23:30:00Z,26.2168,-96.4998,1015.47,11111222 
TABS,ioos:station:wmo:42045:1,2017-02-02T00:00:00Z,26.2168,-96.4998,1015.59,11111222 
TABS,ioos:station:wmo:42045:1,2017-02-02T00:30:00Z,26.2168,-96.4998,1015.78,11111222 
TABS,ioos:station:wmo:42045:1,2017-02-02T01:00:00Z,26.2168,-96.4998,1015.95,11111222 
TABS,ioos:station:wmo:42045:1,2017-02-02T01:30:00Z,26.2168,-96.4998,1016.27,11111222 
TABS,ioos:station:wmo:42045:1,2017-02-02T02:00:00Z,26.2168,-96.4998,1016.81,11111222 
TABS,ioos:station:wmo:42045:1,2017-02-02T02:30:00Z,26.2168,-96.4998,1017.18,11111222 
TABS,ioos:station:wmo:42045:1,2017-02-02T03:00:00Z,26.2168,-96.4998,1017.12,11111222 
TABS,ioos:station:wmo:42045:1,2017-02-02T03:30:00Z,26.2168,-96.4998,1017.32,11111222 
TABS,ioos:station:wmo:42045:1,2017-02-02T04:00:00Z,26.2168,-96.4998,1017.48,11111222 
TABS,ioos:station:wmo:42045:1,2017-02-02T04:30:00Z,26.2168,-96.4998,1017.49,11111222 
TABS,ioos:station:wmo:42045:1,2017-02-02T05:00:00Z,26.2168,-96.4998,1017.46,11111222 
TABS,ioos:station:wmo:42045:1,2017-02-02T05:30:00Z,26.2168,-96.4998,1017.65,11111222 
TABS,ioos:station:wmo:42045:1,2017-02-02T06:00:00Z,26.2168,-96.4998,1017.76,11111222 
TABS,ioos:station:wmo:42045:1,2017-02-02T06:30:00Z,26.2168,-96.4998,1017.63,11111222 
TABS,ioos:station:wmo:42045:1,2017-02-02T07:00:00Z,26.2168,-96.4998,1017.56,11111222 
TABS,ioos:station:wmo:42045:1,2017-02-02T07:30:00Z,26.2168,-96.4998,1017.52,11111222 
TABS,ioos:station:wmo:42045:1,2017-02-02T08:00:00Z,26.2168,-96.4998,1017.41,11111222 
TABS,ioos:station:wmo:42045:1,2017-02-02T08:30:00Z,26.2168,-96.4998,1017.51,11111222 
TABS,ioos:station:wmo:42045:1,2017-02-02T09:00:00Z,26.2168,-96.4998,1017.77,11111222 
TABS,ioos:station:wmo:42045:1,2017-02-02T09:30:00Z,26.2168,-96.4998,1017.63,11111222 
TABS,ioos:station:wmo:42045:1,2017-02-02T10:00:00Z,26.2168,-96.4998,1017.72,11111222 
TABS,ioos:station:wmo:42045:1,2017-02-02T10:30:00Z,26.2168,-96.4998,1017.81,11111222 
TABS,ioos:station:wmo:42045:1,2017-02-02T11:00:00Z,26.2168,-96.4998,1017.94,11111222 
TABS,ioos:station:wmo:42045:1,2017-02-02T11:30:00Z,26.2168,-96.4998,1018.12,11111222 
TABS,ioos:station:wmo:42045:1,2017-02-02T12:00:00Z,26.2168,-96.4998,1018.28,11111222 
TABS,ioos:station:wmo:42045:1,2017-02-02T12:30:00Z,26.2168,-96.4998,1018.56,11111222 
TABS,ioos:station:wmo:42045:1,2017-02-02T13:00:00Z,26.2168,-96.4998,1018.84,11111222 
TABS,ioos:station:wmo:42045:1,2017-02-02T13:30:00Z,26.2168,-96.4998,1019.24,11111222 
TABS,ioos:station:wmo:42045:1,2017-02-02T14:00:00Z,26.2168,-96.4998,1019.61,11111222 
TABS,ioos:station:wmo:42045:1,2017-02-02T14:30:00Z,26.2168,-96.4998,1020.08,11111222 
TABS,ioos:station:wmo:42045:1,2017-02-02T15:00:00Z,26.2168,-96.4998,1020.27,11111222 
TABS,ioos:station:wmo:42045:1,2017-02-02T15:30:00Z,26.2168,-96.4998,1020.62,11111222 
TABS,ioos:station:wmo:42045:1,2017-02-02T16:00:00Z,26.2168,-96.4998,1020.95,11111222 
TABS,ioos:station:wmo:42045:1,2017-02-02T16:30:00Z,26.2168,-96.4998,1020.88,11111222 
TABS,ioos:station:wmo:42045:1,2017-02-02T17:00:00Z,26.2168,-96.4998,1020.74,11111222 
TABS,ioos:station:wmo:42045:1,2017-02-02T17:30:00Z,26.2168,-96.4998,1020.74,11111222 
TABS,ioos:station:wmo:42045:1,2017-02-02T18:00:00Z,26.2168,-96.4998,1020.62,11111222 
TABS,ioos:station:wmo:42045:1,2017-02-02T18:30:00Z,26.2168,-96.4998,1020.19,11111222 
TABS,ioos:station:wmo:42045:1,2017-02-02T19:00:00Z,26.2168,-96.4998,1019.94,11111222 
TABS,ioos:station:wmo:42045:1,2017-02-02T19:30:00Z,26.2168,-96.4998,1019.74,11111222 
TABS,ioos:station:wmo:42045:1,2017-02-02T20:00:00Z,26.2168,-96.4998,1019.55,11111222 
TABS,ioos:station:wmo:42045:1,2017-02-02T20:30:00Z,26.2168,-96.4998,1019.34,11111222 
TABS,ioos:station:wmo:42045:1,2017-02-02T21:00:00Z,26.2168,-96.4998,1019.18,11111222 
TABS,ioos:station:wmo:42045:1,2017-02-02T21:30:00Z,26.2168,-96.4998,1018.78,11111222 
TABS,ioos:station:wmo:42045:1,2017-02-02T22:00:00Z,26.2168,-96.4998,1019.0,11111222 
TABS,ioos:station:wmo:42045:1,2017-02-02T22:30:00Z,26.2168,-96.4998,1019.21,11111222 
TABS,ioos:station:wmo:42045:1,2017-02-02T23:00:00Z,26.2168,-96.4998,1019.49,11111222 
TABS,ioos:station:wmo:42045:1,2017-02-02T23:30:00Z,26.2168,-96.4998,1019.6,11111222 
TABS,ioos:station:wmo:42045:1,2017-02-03T00:00:00Z,26.2168,-96.4998,1019.63,11111222 
TABS,ioos:station:wmo:42045:1,2017-02-03T00:30:00Z,26.2168,-96.4998,1019.82,11111222 
TABS,ioos:station:wmo:42045:1,2017-02-03T01:00:00Z,26.2168,-96.4998,1019.95,11111222 
TABS,ioos:station:wmo:42045:1,2017-02-03T01:30:00Z,26.2168,-96.4998,1020.41,11111222 
TABS,ioos:station:wmo:42045:1,2017-02-03T02:00:00Z,26.2168,-96.4998,1020.68,11111222 
TABS,ioos:station:wmo:42045:1,2017-02-03T02:30:00Z,26.2168,-96.4998,1020.76,11111222 
TABS,ioos:station:wmo:42045:1,2017-02-03T03:00:00Z,26.2168,-96.4998,1020.89,11111222 
TABS,ioos:station:wmo:42045:1,2017-02-03T03:30:00Z,26.2168,-96.4998,1021.06,11111222 
TABS,ioos:station:wmo:42045:1,2017-02-03T04:00:00Z,26.2168,-96.4998,1020.99,11111222 
TABS,ioos:station:wmo:42045:1,2017-02-03T04:30:00Z,26.2168,-96.4998,1021.12,11111222 
TABS,ioos:station:wmo:42045:1,2017-02-03T05:00:00Z,26.2168,-96.4998,1021.24,11111222 
TABS,ioos:station:wmo:42045:1,2017-02-03T05:30:00Z,26.2168,-96.4998,1021.42,11111222 
TABS,ioos:station:wmo:42045:1,2017-02-03T06:00:00Z,26.2168,-96.4998,1021.33,11111222 
TABS,ioos:station:wmo:42045:1,2017-02-03T06:30:00Z,26.2168,-96.4998,1021.51,11111222 
TABS,ioos:station:wmo:42045:1,2017-02-03T07:00:00Z,26.2168,-96.4998,1021.37,11111222 
TABS,ioos:station:wmo:42045:1,2017-02-03T07:30:00Z,26.2168,-96.4998,1020.93,11111222 
TABS,ioos:station:wmo:42045:1,2017-02-03T08:00:00Z,26.2168,-96.4998,1021.02,11111222 
TABS,ioos:station:wmo:42045:1,2017-02-03T08:30:00Z,26.2168,-96.4998,1020.91,11111222 
TABS,ioos:station:wmo:42045:1,2017-02-03T09:00:00Z,26.2168,-96.4998,1020.55,11111222 
TABS,ioos:station:wmo:42045:1,2017-02-03T09:30:00Z,26.2168,-96.4998,1020.49,11111222 
TABS,ioos:station:wmo:42045:1,2017-02-03T10:00:00Z,26.2168,-96.4998,1020.72,11111222 
TABS,ioos:station:wmo:42045:1,2017-02-03T10:30:00Z,26.2168,-96.4998,1020.71,11111222 
TABS,ioos:station:wmo:42045:1,2017-02-03T11:00:00Z,26.2168,-96.4998,1020.53,11111222 
TABS,ioos:station:wmo:42045:1,2017-02-03T11:30:00Z,26.2168,-96.4998,1020.65,11111222 
TABS,ioos:station:wmo:42045:1,2017-02-03T12:00:00Z,26.2168,-96.4998,1021.22,11111222 
TABS,ioos:station:wmo:42045:1,2017-02-03T12:30:00Z,26.2168,-96.4998,1021.83,11111222 
TABS,ioos:station:wmo:42045:1,2017-02-03T13:00:00Z,26.2168,-96.4998,1021.88,11111222 
TABS,ioos:station:wmo:42045:1,2017-02-03T13:30:00Z,26.2168,-96.4998,1022.24,11111222 
TABS,ioos:station:wmo:42045:1,2017-02-03T14:00:00Z,26.2168,-96.4998,1022.46,11111222 
TABS,ioos:station:wmo:42045:1,2017-02-03T14:30:00Z,26.2168,-96.4998,1022.79,11111222 
TABS,ioos:station:wmo:42045:1,2017-02-03T15:00:00Z,26.2168,-96.4998,1022.93,11111222 
TABS,ioos:station:wmo:42045:1,2017-02-03T15:30:00Z,26.2168,-96.4998,1023.48,11111222 
TABS,ioos:station:wmo:42045:1,2017-02-03T16:00:00Z,26.2168,-96.4998,1023.61,11111222 
TABS,ioos:station:wmo:42045:1,2017-02-03T16:30:00Z,26.2168,-96.4998,1023.82,11111222 
TABS,ioos:station:wmo:42045:1,2017-02-03T17:00:00Z,26.2168,-96.4998,1023.73,11111222 
TABS,ioos:station:wmo:42045:1,2017-02-03T17:30:00Z,26.2168,-96.4998,1023.48,11111222 
TABS,ioos:station:wmo:42045:1,2017-02-03T18:00:00Z,26.2168,-96.4998,1022.85,11111222 
TABS,ioos:station:wmo:42045:1,2017-02-03T18:30:00Z,26.2168,-96.4998,1022.35,11111222 
TABS,ioos:station:wmo:42045:1,2017-02-03T19:00:00Z,26.2168,-96.4998,1021.88,11111222 
TABS,ioos:station:wmo:42045:1,2017-02-03T19:30:00Z,26.2168,-96.4998,1021.67,11111222 
TABS,ioos:station:wmo:42045:1,2017-02-03T20:00:00Z,26.2168,-96.4998,1021.4,11111222 
TABS,ioos:station:wmo:42045:1,2017-02-03T20:30:00Z,26.2168,-96.4998,1021.17,11111222 
TABS,ioos:station:wmo:42045:1,2017-02-03T21:00:00Z,26.2168,-96.4998,1020.85,11111222 
TABS,ioos:station:wmo:42045:1,2017-02-03T21:30:00Z,26.2168,-96.4998,1020.84,11111222 
TABS,ioos:station:wmo:42045:1,2017-02-03T22:00:00Z,26.2168,-96.4998,1020.56,11111222 
TABS,ioos:station:wmo:42045:1,2017-02-03T22:30:00Z,26.2168,-96.4998,1021.3,11111222 
TABS,ioos:station:wmo:42045:1,2017-02-03T23:00:00Z,26.2168,-96.4998,1021.21,11111222 
TABS,ioos:station:wmo:42045:1,2017-02-03T23:30:00Z,26.2168,-96.4998,1021.62,11111222 
TABS,ioos:station:wmo:42045:1,2017-02-04T00:00:00Z,26.2168,-96.4998,1021.88,11111222 
TABS,ioos:station:wmo:42045:1,2017-02-04T00:30:00Z,26.2168,-96.4998,1022.2,11111222 
TABS,ioos:station:wmo:42045:1,2017-02-04T01:00:00Z,26.2168,-96.4998,1022.39,11111222 
TABS,ioos:station:wmo:42045:1,2017-02-04T01:30:00Z,26.2168,-96.4998,1022.47,11111222 
TABS,ioos:station:wmo:42045:1,2017-02-04T02:00:00Z,26.2168,-96.4998,1022.84,11111222 
TABS,ioos:station:wmo:42045:1,2017-02-04T02:30:00Z,26.2168,-96.4998,1023.34,11111222 
TABS,ioos:station:wmo:42045:1,2017-02-04T03:00:00Z,26.2168,-96.4998,1023.41,11111222 
TABS,ioos:station:wmo:42045:1,2017-02-04T03:30:00Z,26.2168,-96.4998,1023.51,11111222 
TABS,ioos:station:wmo:42045:1,2017-02-04T04:00:00Z,26.2168,-96.4998,1023.62,11111222 
TABS,ioos:station:wmo:42045:1,2017-02-04T04:30:00Z,26.2168,-96.4998,1023.57,11111222 
TABS,ioos:station:wmo:42045:1,2017-02-04T05:00:00Z,26.2168,-96.4998,1023.68,11111222 
TABS,ioos:station:wmo:42045:1,2017-02-04T05:30:00Z,26.2168,-96.4998,1023.27,11111222 
TABS,ioos:station:wmo:42045:1,2017-02-04T06:00:00Z,26.2168,-96.4998,1023.29,11111222 
TABS,ioos:station:wmo:42045:1,2017-02-04T06:30:00Z,26.2168,-96.4998,1023.04,11111222 
TABS,ioos:station:wmo:42045:1,2017-02-04T07:00:00Z,26.2168,-96.4998,1023.0,11111222 
TABS,ioos:station:wmo:42045:1,2017-02-04T07:30:00Z,26.2168,-96.4998,1022.29,11111222 
TABS,ioos:station:wmo:42045:1,2017-02-04T08:00:00Z,26.2168,-96.4998,1022.11,11111222 
TABS,ioos:station:wmo:42045:1,2017-02-04T08:30:00Z,26.2168,-96.4998,1021.53,11111222 
TABS,ioos:station:wmo:42045:1,2017-02-04T09:00:00Z,26.2168,-96.4998,1021.75,11111222 
TABS,ioos:station:wmo:42045:1,2017-02-04T09:30:00Z,26.2168,-96.4998,1021.32,11111222 
TABS,ioos:station:wmo:42045:1,2017-02-04T10:00:00Z,26.2168,-96.4998,1021.14,11111222 
TABS,ioos:station:wmo:42045:1,2017-02-04T10:30:00Z,26.2168,-96.4998,1021.15,11111222 
TABS,ioos:station:wmo:42045:1,2017-02-04T11:00:00Z,26.2168,-96.4998,1021.11,11111222 
TABS,ioos:station:wmo:42045:1,2017-02-04T11:30:00Z,26.2168,-96.4998,1021.17,11111222 
TABS,ioos:station:wmo:42045:1,2017-02-04T12:00:00Z,26.2168,-96.4998,1021.57,11111222 
TABS,ioos:station:wmo:42045:1,2017-02-04T12:30:00Z,26.2168,-96.4998,1021.73,11111222 
TABS,ioos:station:wmo:42045:1,2017-02-04T13:00:00Z,26.2168,-96.4998,1022.06,11111222 
TABS,ioos:station:wmo:42045:1,2017-02-04T13:30:00Z,26.2168,-96.4998,1022.16,11111222 
TABS,ioos:station:wmo:42045:1,2017-02-04T14:00:00Z,26.2168,-96.4998,1022.42,11111222 
TABS,ioos:station:wmo:42045:1,2017-02-04T14:30:00Z,26.2168,-96.4998,1022.45,11111222 
TABS,ioos:station:wmo:42045:1,2017-02-04T15:00:00Z,26.2168,-96.4998,1022.64,11111222 
TABS,ioos:station:wmo:42045:1,2017-02-04T15:30:00Z,26.2168,-96.4998,1023.0,11111222 
TABS,ioos:station:wmo:42045:1,2017-02-04T16:00:00Z,26.2168,-96.4998,1023.16,11111222 
TABS,ioos:station:wmo:42045:1,2017-02-04T16:30:00Z,26.2168,-96.4998,1023.26,11111222 
TABS,ioos:station:wmo:42045:1,2017-02-04T17:00:00Z,26.2168,-96.4998,1023.15,11111222 
TABS,ioos:station:wmo:42045:1,2017-02-04T17:30:00Z,26.2168,-96.4998,1022.8,11111222 
TABS,ioos:station:wmo:42045:1,2017-02-04T18:00:00Z,26.2168,-96.4998,1021.95,11111222 
TABS,ioos:station:wmo:42045:1,2017-02-04T18:30:00Z,26.2168,-96.4998,1021.29,11111222 
TABS,ioos:station:wmo:42045:1,2017-02-04T19:00:00Z,26.2168,-96.4998,1020.71,11111222 
TABS,ioos:station:wmo:42045:1,2017-02-04T19:30:00Z,26.2168,-96.4998,1020.26,11111222 
TABS,ioos:station:wmo:42045:1,2017-02-04T20:00:00Z,26.2168,-96.4998,1019.89,11111222 
TABS,ioos:station:wmo:42045:1,2017-02-04T20:30:00Z,26.2168,-96.4998,1019.49,11111222 
TABS,ioos:station:wmo:42045:1,2017-02-04T21:00:00Z,26.2168,-96.4998,1019.32,11111222 
TABS,ioos:station:wmo:42045:1,2017-02-04T21:30:00Z,26.2168,-96.4998,1019.19,11111222 
TABS,ioos:station:wmo:42045:1,2017-02-04T22:00:00Z,26.2168,-96.4998,1019.24,11111222 
TABS,ioos:station:wmo:42045:1,2017-02-04T22:30:00Z,26.2168,-96.4998,1019.3,11111222 
TABS,ioos:station:wmo:42045:1,2017-02-04T23:00:00Z,26.2168,-96.4998,1019.49,11111222 
TABS,ioos:station:wmo:42045:1,2017-02-04T23:30:00Z,26.2168,-96.4998,1019.44,11111222 
TABS,ioos:station:wmo:42045:1,2017-02-05T00:00:00Z,26.2168,-96.4998,1019.55,11111222 
TABS,ioos:station:wmo:42045:1,2017-02-05T00:30:00Z,26.2168,-96.4998,1019.58,11111222 
TABS,ioos:station:wmo:42045:1,2017-02-05T01:00:00Z,26.2168,-96.4998,1019.78,11111222 
TABS,ioos:station:wmo:42045:1,2017-02-05T01:30:00Z,26.2168,-96.4998,1019.75,11111222 
TABS,ioos:station:wmo:42045:1,2017-02-05T02:00:00Z,26.2168,-96.4998,1020.03,11111222 
TABS,ioos:station:wmo:42045:1,2017-02-05T02:30:00Z,26.2168,-96.4998,1020.23,11111222 
TABS,ioos:station:wmo:42045:1,2017-02-05T03:00:00Z,26.2168,-96.4998,1020.35,11111222 
TABS,ioos:station:wmo:42045:1,2017-02-05T03:30:00Z,26.2168,-96.4998,1020.24,11111222 
TABS,ioos:station:wmo:42045:1,2017-02-05T04:00:00Z,26.2168,-96.4998,1020.27,11111222 
TABS,ioos:station:wmo:42045:1,2017-02-05T04:30:00Z,26.2168,-96.4998,1020.16,11111222 
TABS,ioos:station:wmo:42045:1,2017-02-05T05:00:00Z,26.2168,-96.4998,1019.82,11111222 
TABS,ioos:station:wmo:42045:1,2017-02-05T05:30:00Z,26.2168,-96.4998,1019.63,11111222 
TABS,ioos:station:wmo:42045:1,2017-02-05T06:00:00Z,26.2168,-96.4998,1019.46,11111222 
TABS,ioos:station:wmo:42045:1,2017-02-05T06:30:00Z,26.2168,-96.4998,1019.11,11111222 
TABS,ioos:station:wmo:42045:1,2017-02-05T07:00:00Z,26.2168,-96.4998,1019.08,11111222 
TABS,ioos:station:wmo:42045:1,2017-02-05T07:30:00Z,26.2168,-96.4998,1018.99,11111222 
TABS,ioos:station:wmo:42045:1,2017-02-05T08:00:00Z,26.2168,-96.4998,1018.69,11111222 
TABS,ioos:station:wmo:42045:1,2017-02-05T08:30:00Z,26.2168,-96.4998,1018.41,11111222 
TABS,ioos:station:wmo:42045:1,2017-02-05T09:00:00Z,26.2168,-96.4998,1018.18,11111222 
TABS,ioos:station:wmo:42045:1,2017-02-05T09:30:00Z,26.2168,-96.4998,1018.0,11111222 
TABS,ioos:station:wmo:42045:1,2017-02-05T10:00:00Z,26.2168,-96.4998,1018.12,11111222 
TABS,ioos:station:wmo:42045:1,2017-02-05T10:30:00Z,26.2168,-96.4998,1018.08,11111222 
TABS,ioos:station:wmo:42045:1,2017-02-05T11:00:00Z,26.2168,-96.4998,1017.85,11111222 
TABS,ioos:station:wmo:42045:1,2017-02-05T11:30:00Z,26.2168,-96.4998,1017.87,11111222 
TABS,ioos:station:wmo:42045:1,2017-02-05T12:00:00Z,26.2168,-96.4998,1018.03,11111222 
TABS,ioos:station:wmo:42045:1,2017-02-05T12:30:00Z,26.2168,-96.4998,1018.23,11111222 
TABS,ioos:station:wmo:42045:1,2017-02-05T13:00:00Z,26.2168,-96.4998,1018.37,11111222 
TABS,ioos:station:wmo:42045:1,2017-02-05T13:30:00Z,26.2168,-96.4998,1018.69,11111222 
TABS,ioos:station:wmo:42045:1,2017-02-05T14:00:00Z,26.2168,-96.4998,1018.7,11111222 
TABS,ioos:station:wmo:42045:1,2017-02-05T14:30:00Z,26.2168,-96.4998,1018.94,11111222 
TABS,ioos:station:wmo:42045:1,2017-02-05T15:00:00Z,26.2168,-96.4998,1019.07,11111222 
TABS,ioos:station:wmo:42045:1,2017-02-05T15:30:00Z,26.2168,-96.4998,1019.04,11111222 
TABS,ioos:station:wmo:42045:1,2017-02-05T16:00:00Z,26.2168,-96.4998,1019.26,11111222 
TABS,ioos:station:wmo:42045:1,2017-02-05T16:30:00Z,26.2168,-96.4998,1019.38,11111222 
TABS,ioos:station:wmo:42045:1,2017-02-05T17:00:00Z,26.2168,-96.4998,1019.22,11111222 
TABS,ioos:station:wmo:42045:1,2017-02-05T17:30:00Z,26.2168,-96.4998,1019.01,11111222 
TABS,ioos:station:wmo:42045:1,2017-02-05T18:30:00Z,26.2168,-96.4998,1018.01,11111222 
TABS,ioos:station:wmo:42045:1,2017-02-05T19:00:00Z,26.2168,-96.4998,1017.41,11111222 
TABS,ioos:station:wmo:42045:1,2017-02-05T19:30:00Z,26.2168,-96.4998,1017.03,11111222 
TABS,ioos:station:wmo:42045:1,2017-02-05T20:00:00Z,26.2168,-96.4998,1016.71,11111222 
TABS,ioos:station:wmo:42045:1,2017-02-05T20:30:00Z,26.2168,-96.4998,1016.37,11111222 
TABS,ioos:station:wmo:42045:1,2017-02-05T21:00:00Z,26.2168,-96.4998,1016.16,11111222 
TABS,ioos:station:wmo:42045:1,2017-02-05T21:30:00Z,26.2168,-96.4998,1016.1,11111222 
TABS,ioos:station:wmo:42045:1,2017-02-05T22:00:00Z,26.2168,-96.4998,1016.16,11111222 
TABS,ioos:station:wmo:42045:1,2017-02-05T22:30:00Z,26.2168,-96.4998,1016.37,11111222 
TABS,ioos:station:wmo:42045:1,2017-02-05T23:00:00Z,26.2168,-96.4998,1016.61,11111222 
TABS,ioos:station:wmo:42045:1,2017-02-05T23:30:00Z,26.2168,-96.4998,1016.69,11111222 
TABS,ioos:station:wmo:42045:1,2017-02-06T00:00:00Z,26.2168,-96.4998,1016.8,11111222 
TABS,ioos:station:wmo:42045:1,2017-02-06T00:30:00Z,26.2168,-96.4998,1017.0,11111222 
TABS,ioos:station:wmo:42045:1,2017-02-06T01:00:00Z,26.2168,-96.4998,1017.24,11111222 
TABS,ioos:station:wmo:42045:1,2017-02-06T01:30:00Z,26.2168,-96.4998,1017.37,11111222 
TABS,ioos:station:wmo:42045:1,2017-02-06T02:00:00Z,26.2168,-96.4998,1017.46,11111222 
TABS,ioos:station:wmo:42045:1,2017-02-06T02:30:00Z,26.2168,-96.4998,1017.55,11111222 
TABS,ioos:station:wmo:42045:1,2017-02-06T03:00:00Z,26.2168,-96.4998,1017.51,11111222 
TABS,ioos:station:wmo:42045:1,2017-02-06T03:30:00Z,26.2168,-96.4998,1017.54,11111222 
TABS,ioos:station:wmo:42045:1,2017-02-06T04:00:00Z,26.2168,-96.4998,1017.36,11111222 
TABS,ioos:station:wmo:42045:1,2017-02-06T04:30:00Z,26.2168,-96.4998,1017.33,11111222 
TABS,ioos:station:wmo:42045:1,2017-02-06T05:00:00Z,26.2168,-96.4998,1017.31,11111222 
TABS,ioos:station:wmo:42045:1,2017-02-06T05:30:00Z,26.2168,-96.4998,1017.15,11111222 
TABS,ioos:station:wmo:42045:1,2017-02-06T06:00:00Z,26.2168,-96.4998,1016.57,11111222 
TABS,ioos:station:wmo:42045:1,2017-02-06T06:30:00Z,26.2168,-96.4998,1016.04,11111222 
TABS,ioos:station:wmo:42045:1,2017-02-06T07:00:00Z,26.2168,-96.4998,1015.74,11111222 
TABS,ioos:station:wmo:42045:1,2017-02-06T07:30:00Z,26.2168,-96.4998,1015.41,11111222 
TABS,ioos:station:wmo:42045:1,2017-02-06T08:00:00Z,26.2168,-96.4998,1015.38,11111222 
TABS,ioos:station:wmo:42045:1,2017-02-06T08:30:00Z,26.2168,-96.4998,1015.52,11111222 
TABS,ioos:station:wmo:42045:1,2017-02-06T09:00:00Z,26.2168,-96.4998,1015.29,11111222 
TABS,ioos:station:wmo:42045:1,2017-02-06T09:30:00Z,26.2168,-96.4998,1015.22,11111222 
TABS,ioos:station:wmo:42045:1,2017-02-06T10:00:00Z,26.2168,-96.4998,1015.0,11111222 
TABS,ioos:station:wmo:42045:1,2017-02-06T10:30:00Z,26.2168,-96.4998,1015.01,11111222 
TABS,ioos:station:wmo:42045:1,2017-02-06T11:00:00Z,26.2168,-96.4998,1015.54,11111222 
TABS,ioos:station:wmo:42045:1,2017-02-06T11:30:00Z,26.2168,-96.4998,1015.2,11111222 
TABS,ioos:station:wmo:42045:1,2017-02-06T12:00:00Z,26.2168,-96.4998,1015.33,11111222 
TABS,ioos:station:wmo:42045:1,2017-02-06T12:30:00Z,26.2168,-96.4998,1015.44,11111222 
TABS,ioos:station:wmo:42045:1,2017-02-06T13:00:00Z,26.2168,-96.4998,1016.02,11111222 
TABS,ioos:station:wmo:42045:1,2017-02-06T13:30:00Z,26.2168,-96.4998,1016.0,11111222 
TABS,ioos:station:wmo:42045:1,2017-02-06T14:00:00Z,26.2168,-96.4998,1016.16,11111222 
TABS,ioos:station:wmo:42045:1,2017-02-06T14:30:00Z,26.2168,-96.4998,1016.27,11111222 
TABS,ioos:station:wmo:42045:1,2017-02-06T15:00:00Z,26.2168,-96.4998,1016.66,11111222 
TABS,ioos:station:wmo:42045:1,2017-02-06T15:30:00Z,26.2168,-96.4998,1016.9,11111222 
TABS,ioos:station:wmo:42045:1,2017-02-06T16:00:00Z,26.2168,-96.4998,1017.04,11111222 
TABS,ioos:station:wmo:42045:1,2017-02-06T16:30:00Z,26.2168,-96.4998,1017.09,11111222 
TABS,ioos:station:wmo:42045:1,2017-02-06T17:00:00Z,26.2168,-96.4998,1016.98,11111222 
TABS,ioos:station:wmo:42045:1,2017-02-06T17:30:00Z,26.2168,-96.4998,1016.84,11111222 
TABS,ioos:station:wmo:42045:1,2017-02-06T18:00:00Z,26.2168,-96.4998,1016.38,11111222 
TABS,ioos:station:wmo:42045:1,2017-02-06T18:30:00Z,26.2168,-96.4998,1015.58,11111222 
TABS,ioos:station:wmo:42045:1,2017-02-06T19:00:00Z,26.2168,-96.4998,1014.88,11111222 